Theta_e
314 315 315 315 316 315 314 316 314 314 319 317 320 326 327 327 318 316 320 320 319 316 320 314 312 313 315 316 316 316 323 325 320 321 324 323 327 321 324 330 331 331 329 331 333
313 313 314 316 315 314 315 315 314 316 317 318 320 325 323 320 320 319 319 320 322 323 312 314 316 315 317 316 315 320 327 325 319 320 323 324 326 322 328 331 332 332 331 333 331
312 312 311 314 315 313 314 313 315 314 317 319 318 323 322 320 319 319 318 322 324 325 326 314 318 318 318 317 317 317 327 321 318 317 317 323 320 322 328 331 329 331 333 329 332
311 311 310 312 314 313 311 312 315 313 314 319 319 322 321 319 329 319 318 319 324 327 324 319 319 321 324 319 315 319 316 317 315 316 315 321 323 322 327 327 323 328 331 331 332
310 309 309 310 311 312 310 312 315 314 314 318 319 321 320 322 323 316 315 319 321 325 327 326 324 322 324 326 319 316 316 314 313 314 315 315 320 324 323 319 320 329 331 332 332
310 309 307 310 310 310 309 311 315 315 314 316 319 321 320 324 320 320 315 318 320 324 327 325 329 323 326 324 320 316 314 313 312 314 313 316 315 317 321 321 325 331 332 332 332
309 309 307 309 309 309 308 309 310 315 314 314 319 320 322 322 320 322 319 319 319 320 325 326 322 329 322 326 322 317 318 313 313 314 314 314 315 316 318 322 327 330 331 332 331
309 308 307 305 307 308 309 309 309 309 314 314 320 321 324 317 320 320 318 318 317 313 315 319 324 325 327 321 320 321 322 324 319 314 313 314 319 319 317 323 325 328 331 332 331
308 307 305 306 304 306 308 309 309 311 312 314 315 321 322 313 316 317 316 317 315 312 312 315 319 319 322 328 327 321 329 329 323 314 314 316 319 318 317 323 323 327 330 332 331
307 305 305 306 306 307 307 309 309 310 313 314 317 322 313 319 313 312 314 314 312 311 311 315 314 314 319 333 338 330 319 318 334 316 313 316 317 313 314 321 322 326 328 331 332
306 305 304 305 306 308 308 309 309 312 312 319 318 319 316 315 313 312 312 312 311 312 315 312 315 320 317 328 331 327 331 332 322 311 315 316 317 317 313 317 321 323 326 328 330
306 305 304 305 307 307 308 310 309 310 314 316 315 317 314 315 316 313 312 314 314 315 311 309 315 317 317 319 316 324 332 329 311 310 314 316 316 317 314 313 317 320 322 326 328
306 305 304 306 307 308 308 308 309 310 309 317 315 315 315 317 315 315 314 313 312 315 311 313 314 310 311 316 317 320 328 317 319 311 310 312 316 315 314 313 312 313 317 320 325
306 304 304 306 306 307 307 308 308 308 310 315 317 313 313 316 317 313 313 311 311 310 310 311 308 308 309 315 316 317 314 315 313 317 324 311 328 321 318 313 312 313 313 314 318
306 304 305 306 306 307 306 307 307 305 316 314 315 312 313 317 314 314 312 313 312 309 310 313 309 309 312 311 311 316 311 314 312 317 314 312 320 323 314 315 314 313 314 314 314
305 304 305 306 306 307 305 305 305 308 317 316 314 314 315 313 315 313 312 309 311 310 310 311 306 308 310 306 310 307 309 309 309 311 319 318 316 320 317 315 318 314 314 314 313
305 304 304 304 305 306 306 304 307 313 311 312 314 315 316 314 314 316 311 313 315 315 316 311 309 308 305 309 307 310 314 315 318 317 321 306 310 318 315 311 311 314 313 313 314
304 303 304 304 304 304 303 305 308 313 313 308 315 315 317 314 315 317 312 316 314 315 315 320 316 310 308 312 310 311 316 317 320 317 317 305 313 314 310 311 310 310 309 309 309
304 303 303 304 303 303 304 304 306 313 312 312 316 317 317 314 313 315 314 315 313 314 321 320 317 307 306 306 310 311 313 311 310 305 313 312 310 309 311 309 308 308 307 308 308
303 302 302 302 303 303 304 303 305 306 306 314 318 319 317 315 313 314 315 314 311 312 309 314 311 307 306 307 306 310 310 313 312 317 315 311 310 314 311 312 310 308 309 309 307
301 303 302 301 302 304 305 304 308 309 307 315 317 314 317 316 313 314 313 313 312 310 307 313 315 309 308 311 311 309 311 310 313 311 316 314 313 310 310 310 309 308 306 306 306
302 303 302 301 304 304 304 304 305 306 309 306 314 316 317 315 314 314 314 314 311 310 311 311 311 312 311 307 305 307 310 310 317 311 309 310 313 305 307 306 305 308 307 306 304
301 303 302 302 305 304 303 303 305 309 308 305 312 314 315 315 314 315 314 311 311 311 309 309 311 313 311 309 307 309 309 311 309 310 316 319 315 307 304 306 307 307 307 304 305
301 302 303 303 304 303 303 303 303 304 306 306 307 314 315 315 313 315 314 311 311 310 310 310 310 315 315 316 311 310 309 309 310 319 314 313 313 309 308 307 307 307 307 305 306
298 302 301 303 305 305 304 305 304 304 308 307 308 316 316 318 315 315 312 312 311 311 309 311 315 311 307 308 310 310 308 308 309 310 312 312 311 311 311 309 308 308 308 307 306
299 300 298 303 302 304 306 305 309 308 309 310 311 315 316 317 317 315 313 313 312 311 309 307 316 311 309 309 309 310 309 308 309 310 310 310 310 309 310 309 309 308 306 307 307
295 294 302 303 303 303 304 307 307 307 309 309 309 315 316 316 313 313 313 313 312 312 310 311 313 317 318 310 312 316 310 310 310 310 310 310 311 307 306 306 308 309 307 306 306
Wind_Speed
17 19 20 19 18 18 18 19 20 15 18 16 16 20 19 24 21 22 18 17 22 9 16 10 8 6 5 3 2 2 5 8 9 7 3 9 11 4 2 8 3 5 1 1 24
17 18 19 20 20 19 20 21 22 14 18 17 18 25 21 25 18 20 18 22 19 20 15 8 6 5 5 5 3 6 8 8 4 5 4 12 11 12 8 8 5 6 4 15 23
17 18 17 22 22 21 21 18 22 24 16 19 21 25 27 24 7 10 26 19 19 24 22 13 3 2 4 5 6 5 9 6 5 4 2 11 7 7 9 9 12 15 14 19 22
19 18 17 20 25 23 21 21 23 23 18 22 24 27 26 22 12 9 22 25 25 24 21 12 4 3 3 5 3 5 4 5 6 5 6 8 8 7 13 4 1 8 19 22 21
22 22 17 17 20 21 18 16 21 25 25 21 26 30 29 6 7 8 15 29 23 27 25 15 13 7 5 3 3 3 4 5 4 5 3 7 9 7 13 4 4 14 19 18 21
24 23 19 16 18 19 18 14 18 26 27 24 27 39 15 18 12 17 12 21 25 27 22 18 10 4 6 3 1 3 3 2 3 4 5 6 3 4 8 9 10 15 17 18 23
27 26 21 18 15 17 16 16 8 19 26 24 26 43 13 13 13 20 18 14 17 27 15 18 15 9 9 6 2 5 4 2 5 6 4 6 4 11 5 11 12 15 15 15 20
28 26 25 22 18 15 14 17 17 19 21 29 30 34 3 16 20 17 19 16 11 19 13 11 19 6 4 9 7 5 4 6 9 7 4 7 15 8 12 14 14 14 14 15 18
30 29 27 25 21 17 13 13 15 19 24 25 22 29 10 18 12 21 16 14 11 6 3 3 3 4 4 13 6 2 5 14 6 10 6 10 10 6 11 13 14 13 14 15 14
34 30 26 21 19 16 12 10 12 16 19 21 29 12 10 9 16 21 14 17 7 9 3 8 3 4 8 17 19 12 5 5 15 10 8 11 14 2 9 12 15 15 14 15 16
34 29 25 21 18 14 8 3 1 5 13 12 10 2 17 19 22 11 18 14 7 5 7 5 10 17 18 20 17 18 18 15 9 6 8 15 15 14 8 10 13 14 15 15 17
35 30 23 20 20 16 13 6 10 2 7 22 10 10 19 26 8 10 25 6 7 9 5 4 20 15 18 15 9 16 18 13 4 5 8 9 17 16 12 9 16 17 16 17 14
37 30 23 21 19 17 18 17 10 8 5 4 12 13 15 14 13 14 13 9 7 12 7 9 7 10 10 14 13 11 15 11 6 6 2 1 11 12 10 15 11 12 15 14 18
36 31 25 21 11 14 17 18 12 8 3 7 14 7 12 13 7 17 15 8 4 7 8 3 8 15 13 17 15 10 8 11 10 9 6 4 6 12 17 14 14 17 15 17 18
37 32 28 28 10 10 7 16 12 8 5 16 8 25 18 21 24 12 16 6 14 11 6 7 5 13 20 15 9 4 9 11 4 7 2 6 5 4 3 13 18 18 19 19 17
37 33 28 25 8 8 11 17 11 4 9 9 10 15 26 13 14 13 12 5 10 9 3 3 7 4 3 6 7 14 12 7 4 2 7 13 10 7 8 14 19 16 20 19 19
37 32 28 21 11 16 13 5 3 6 2 5 10 20 25 16 13 21 18 18 11 7 5 3 2 7 3 13 8 8 18 5 5 6 6 2 6 14 9 8 11 15 16 18 17
36 30 24 15 15 18 9 1 3 7 6 4 15 25 14 28 19 23 24 16 16 8 10 8 5 12 9 16 10 17 16 6 7 6 4 1 7 3 8 12 13 13 9 8 9
35 21 17 19 18 21 6 5 5 5 6 6 20 27 11 15 15 19 24 23 13 15 12 11 3 9 3 4 15 11 11 6 6 2 2 5 4 10 11 13 10 10 8 11 10
24 16 12 20 20 15 5 11 9 12 8 11 16 15 13 17 20 17 24 22 12 15 3 11 7 1 0 1 2 11 12 5 1 6 5 3 4 7 4 11 6 6 6 7 8
17 6 13 22 20 5 7 8 6 10 8 11 10 4 13 16 25 27 30 19 21 19 3 9 8 2 4 8 14 6 9 2 5 2 3 3 3 5 3 6 9 8 5 7 4
5 5 16 31 7 3 10 9 9 16 8 7 6 7 23 27 25 16 24 20 28 24 14 6 6 9 20 3 3 1 7 8 6 5 2 2 4 4 4 3 5 8 5 7 7
7 4 19 27 7 10 4 11 11 1 8 4 7 7 20 19 14 8 12 4 27 24 17 9 3 7 6 1 1 11 10 17 3 2 6 6 5 5 4 4 4 4 4 2 1
4 5 3 8 3 14 14 12 12 11 13 4 7 10 21 16 6 12 11 3 20 21 9 7 3 4 12 21 10 15 18 14 13 4 6 16 6 5 8 7 3 2 2 1 3
2 4 4 6 9 11 16 14 16 13 12 4 7 17 22 13 6 12 10 6 10 14 7 6 5 3 6 4 10 14 15 17 18 21 12 28 19 18 16 8 7 5 3 4 4
6 5 1 4 10 13 14 16 17 15 6 5 10 21 19 17 15 26 16 15 19 8 13 1 6 5 2 5 7 5 14 15 25 23 26 17 21 1 11 12 13 10 6 5 5
4 2 3 8 6 10 14 17 22 19 14 19 12 16 20 19 15 14 12 13 11 16 15 9 5 3 5 2 7 4 24 26 19 27 21 23 11 7 5 7 7 9 8 7 7
Wind_Direction
243 243 244 245 248 255 261 254 249 257 246 244 241 224 207 197 188 202 215 215 205 183 182 191 220 187 151 126 139 168 204 216 207 183 198 160 176 141 113 136 168 165 246 110 153
243 248 245 242 247 251 252 249 242 254 248 239 229 223 192 181 182 210 207 207 207 215 155 178 190 170 169 159 166 207 219 213 197 201 200 175 194 156 169 157 184 169 99 139 149
243 248 250 239 239 245 251 257 245 241 252 237 226 226 200 173 176 215 212 205 202 198 209 156 318 83 179 186 176 180 218 193 184 187 159 180 187 171 167 193 197 192 159 159 158
237 245 248 240 236 244 253 262 242 242 247 236 222 209 187 167 215 172 202 204 196 186 170 148 267 97 213 174 152 200 209 180 149 175 153 176 167 193 207 154 238 185 163 161 170
232 239 244 244 240 238 248 255 231 237 230 243 220 198 174 202 213 185 188 198 195 186 173 167 167 160 158 138 189 220 177 181 157 168 179 146 198 204 216 173 145 146 160 174 181
228 234 235 237 237 238 244 256 240 233 229 247 213 191 183 209 185 204 186 189 184 181 189 170 200 186 139 129 351 334 169 188 173 173 167 179 190 203 222 165 151 163 174 180 187
223 230 231 232 234 238 243 246 253 233 233 240 215 178 193 183 175 196 207 183 180 192 176 180 168 166 142 123 238 349 206 214 196 183 170 162 175 221 195 182 171 183 183 187 196
216 224 231 230 232 238 242 247 249 265 229 224 203 188 187 179 170 163 191 198 189 203 184 187 179 143 147 119 51 36 302 199 189 183 163 212 238 224 180 183 199 190 187 193 197
213 221 232 235 236 238 238 241 245 244 246 230 230 204 192 154 149 158 178 168 179 172 169 203 168 132 147 138 105 87 218 206 188 210 155 211 234 196 178 197 202 199 196 199 198
210 222 222 222 225 232 232 232 260 254 251 246 229 186 158 186 134 133 149 146 117 93 114 161 223 179 192 175 183 166 197 222 206 184 200 200 243 176 191 208 209 203 205 205 204
208 215 213 213 213 214 208 211 168 244 224 248 164 137 140 125 124 126 128 101 112 113 176 181 195 205 180 191 174 167 197 187 194 173 179 218 237 229 190 209 217 217 213 214 216
205 207 206 204 200 199 195 203 185 167 285 229 193 170 149 143 118 135 132 123 154 155 123 97 223 204 178 179 150 176 185 188 113 147 200 216 240 237 215 221 216 213 213 218 210
198 201 196 196 195 201 205 210 174 170 247 213 196 166 163 180 137 158 138 112 137 150 161 163 214 166 162 178 161 185 188 172 146 157 191 209 262 230 227 228 226 227 227 223 214
192 196 188 181 185 201 210 221 201 104 285 227 190 180 165 158 132 152 138 119 130 134 134 224 254 168 159 180 164 176 195 155 144 179 212 213 263 227 225 221 216 223 216 221 219
185 194 183 180 154 190 137 161 161 118 250 161 157 154 164 169 132 182 160 129 136 146 166 172 244 177 178 173 169 165 153 147 148 191 231 177 245 217 242 228 223 223 218 224 221
181 186 180 189 168 133 166 138 126 198 232 188 137 170 160 145 158 133 176 136 98 108 324 20 303 282 212 108 176 142 114 85 96 176 247 224 229 231 216 226 230 220 215 217 221
177 180 175 176 199 188 118 96 156 241 116 217 169 157 160 154 131 154 174 150 140 133 151 147 242 306 287 128 152 181 156 143 181 204 238 53 225 258 237 243 236 228 223 225 223
173 172 173 166 146 165 117 60 215 210 212 265 167 155 160 150 162 168 162 162 158 137 128 184 169 204 198 187 183 176 180 159 172 187 176 109 235 235 266 274 260 257 262 264 245
165 160 168 179 175 145 121 181 226 225 153 208 161 156 157 158 140 159 176 177 166 174 149 180 160 171 214 171 166 182 199 113 104 12 153 205 265 265 270 265 248 261 249 253 249
148 150 172 166 169 155 169 194 219 245 302 218 179 173 158 162 147 163 176 186 172 186 47 174 122 137 76 118 18 204 143 164 214 157 204 193 260 241 209 249 283 281 271 236 230
136 142 170 174 161 163 204 205 199 231 194 230 190 139 157 161 163 163 172 179 192 182 167 175 125 155 182 209 188 156 183 157 150 199 185 195 209 215 231 252 278 288 316 309 284
134 147 156 158 170 187 205 185 202 253 205 275 241 160 170 172 171 169 187 174 183 162 173 196 110 150 191 81 321 144 172 186 203 186 148 77 270 175 216 268 271 293 300 289 295
132 103 166 169 176 194 224 210 212 141 222 234 230 195 166 173 162 178 169 50 169 170 162 182 130 118 104 33 216 220 193 201 139 86 188 185 198 170 211 249 270 281 316 338 327
129 153 179 202 217 189 187 205 212 225 255 272 281 157 148 173 116 172 153 136 175 169 125 105 127 162 181 205 148 196 201 200 188 209 145 236 190 212 204 188 202 175 144 62 157
105 181 175 177 200 213 193 200 211 217 224 197 262 170 161 161 123 162 147 109 151 169 151 128 133 118 56 71 154 186 175 171 192 221 198 248 227 227 247 214 229 288 259 178 170
142 154 107 166 191 192 211 215 195 196 193 218 237 184 174 169 176 174 161 164 174 169 187 330 143 136 57 70 88 137 173 180 210 217 234 251 255 214 232 250 260 272 271 271 235
128 113 172 173 169 185 207 207 209 196 221 217 251 200 192 190 170 152 162 163 141 168 174 156 117 89 161 111 74 322 205 201 210 222 227 233 243 156 209 225 226 246 252 236 245